EW0641 Weather Reports


Display with metric or nautical units.
time (UTC)temp
F
wind
direction
speed
MPH
gust
MPH
rain 1hr
in
rain 24hr
in
rain mn
in
humidity
%
barometer
mb
20260504013031 56 227 0.0 0.0 0.00 0.00 0.00 62 1009.5
20260504011520 56 228 0.0 0.0 0.00 0.00 0.00 61 1009.4
20260504010020 57 241 0.0 0.0 0.00 0.00 0.00 59 1009.5
20260504004520 57 266 0.0 0.0 0.00 0.00 0.00 59 1009.5
20260504003023 58 199 0.0 0.0 0.00 0.00 0.00 57 1009.3
20260504001521 60 238 0.0 0.0 0.00 0.00 0.00 56 1009.2
20260504000045 60 256 0.0 0.0 0.00 0.00 0.00 50 1008.8
20260503234518 61 271 0.0 0.0 0.00 0.00 0.00 47 1008.8
20260503233016 61 245 0.0 0.0 0.00 0.00 0.00 48 1008.8
20260503231516 62 285 0.0 0.0 0.00 0.00 0.00 47 1008.8
20260503230015 62 288 0.0 0.0 0.00 0.00 0.00 45 1008.9
20260503224513 62 236 0.0 0.0 0.00 0.00 0.00 46 1009.0
20260503223012 62 297 0.0 0.0 0.00 0.00 0.00 44 1009.1
20260503221512 62 271 0.0 0.0 0.00 0.00 0.00 44 1009.2
20260503220011 63 252 0.0 0.0 0.00 0.00 0.00 43 1009.3
20260503214511 63 277 0.0 0.0 0.00 0.00 0.00 44 1009.2
20260503213010 63 262 0.0 0.0 0.00 0.00 0.00 44 1009.3
20260503211512 63 267 0.0 0.0 0.00 0.00 0.00 43 1009.3
20260503210010 64 298 0.0 0.0 0.00 0.00 0.00 43 1009.4
20260503204508 64 261 0.0 0.0 0.00 0.00 0.00 41 1009.4
20260503203018 64 304 0.0 0.0 0.00 0.00 0.00 42 1009.4
20260503201507 64 277 0.0 0.0 0.00 0.00 0.00 41 1009.6
20260503200005 65 290 0.0 0.0 0.00 0.00 0.00 43 1010.0
20260503194502 63 244 0.0 0.0 0.00 0.00 0.00 44 1010.1
20260503193059 63 271 0.0 0.0 0.00 0.00 0.00 43 1010.2
20260503191604 63 286 0.0 0.0 0.00 0.00 0.00 43 1010.6
20260503184553 61 288 0.0 0.0 0.00 0.00 0.00 43 1011.1
20260503183051 62 258 0.0 0.0 0.00 0.00 0.00 43 1011.3
20260503181600 61 293 0.0 0.0 0.00 0.00 0.00 44 1011.5
20260503180049 61 242 0.0 0.0 0.00 0.00 0.00 43 1011.7
20260503174547 61 240 0.0 0.0 0.00 0.00 0.00 41 1012.0
20260503173054 62 319 0.0 0.0 0.00 0.00 0.00 42 1012.1
20260503171544 62 306 0.0 0.0 0.00 0.00 0.00 41 1012.2
20260503081526 39 360 0.0 0.0 0.00 0.00 0.00 66 1015.0
20260503071518 40 360 0.0 0.0 0.00 0.00 0.00 68 1015.1
20260503054510 40 360 0.0 0.0 0.00 0.01 0.00 69 1015.7
20260503053011 41 360 0.0 0.0 0.00 0.01 0.00 69 1015.7
20260503051506 41 360 0.0 0.0 0.00 0.01 0.00 69 1015.8
20260503050006 41 360 0.0 0.0 0.00 0.01 0.00 69 1015.9
20260503044505 41 360 0.0 0.0 0.00 0.01 0.00 68 1016.0
20260503043006 41 360 0.0 0.0 0.00 0.01 0.00 68 1015.9
20260503041502 41 360 0.0 0.0 0.00 0.01 0.00 67 1016.0
20260503040111 41 360 0.0 0.0 0.00 0.01 0.00 67 1016.1
20260503034600 41 360 0.0 0.0 0.00 0.01 0.01 67 1016.1
20260503033110 41 360 0.0 0.0 0.00 0.01 0.01 66 1016.3
20260503031605 41 360 0.0 0.0 0.00 0.01 0.01 65 1016.3
20260503030058 41 360 0.0 0.0 0.00 0.01 0.01 65 1016.4
20260503024600 41 360 0.0 0.0 0.00 0.01 0.01 66 1016.5
20260503023104 41 360 0.0 0.0 0.00 0.01 0.01 64 1016.5
20260503021606 42 360 0.0 0.0 0.00 0.01 0.01 63 1016.5
20260503020108 42 360 0.0 0.0 0.00 0.01 0.01 61 1016.5
20260503014556 43 360 0.0 0.0 0.00 0.01 0.01 58 1016.5